COSMOS 2499 DEB

Satellite information

Favourite Embed

Satellite Type and Status

DEBRISIN ORBIT

Key statistics

Satellite COSMOS 2499 DEB at a glance.

Uptime

4177

Days in orbit

Revolutions

≈ 12.9

Per day

Orbit

LEO

Low Earth Orbit

Inclination

82.3

Latest

Satellite identification and parameters

Extended collection of information and parameters for COSMOS 2499 DEB.

Object identification

Identified? True

Debris? True

Object name: COSMOS 2499 DEB

International designator: 2014-028AU

Object number (NORAD): 55732

Object ID (CCSDS): 55732

Country: COMMONWEALTH OF INDEPENDENT STATES (CIS)

Current information (Y/N): Y

RCS size: SMALL

Orbital parameters

Period: 111.848 minutes

Inclination: 82.2977 deg

SMA: 7689.762 km

Apoapsis: 1512.145 km

Periapsis: 1111.109 km

RAAN: 41.6987 deg

Eccentricy: 0.02607595

Argument of periapsis: 195.3918 deg

Mean anomaly: 163.9149 deg

Mean motion: 12.87458971 rev/day

Mean motion (dot): 0.00007079 rev/day2

B* drag term: 0.024152198 1/REarth

Two-line elements (TLE)

Creation date: Oct. 28, 2025, 7:11 p.m.

Reference frame: TEME

Reference center: EARTH

Epoch: Oct. 27, 2025, 11:56 p.m. UTC

TLE line 0: 0 COSMOS 2499 DEB

TLE line 1: 1 55732U 14028AU 25300.99725868 .00007079 00000-0 24152-1 0 9999

TLE line 2: 2 55732 82.2977 41.6987 0260760 195.3918 163.9149 12.87458971 66222

Live tracking on map

Real-time ground track for satellite COSMOS 2499 DEB.

In-orbit conjunctions

A list of the most updated potential collisions computed for object COSMOS 2499 DEB.

Target Orbit TCA Probability of collision Miss distance Type
COSMOS 979 LEO 2025-06-16 07:26:34 0.0001161128 160.0 (m) PAYLOAD

Associated space launch

Classified payload for Russia

COSMOS 2499 DEB was lifted into orbit during the mission ‘Rokot / Briz-KM | 3x Strela-3M (Kosmos 2496, Kosmos 2497, Kosmos 2498) & Kosmos 2499’, on board a Rokot/Briz-KM space rocket.

The launch took place on May 23, 2014, 5:27 a.m. from 133/3 (133L).

For more information about the launch, click the button.

Launch to space Rokot / Briz-KM | 3x Strela-3M (Kosmos 2496, Kosmos 2497, Kosmos 2498) & Kosmos 2499
Rokot / Briz-KM | 3x Strela-3M (Kosmos 2496, Kosmos 2497, Kosmos 2498) & Kosmos 2499

Agency: N/A

Status: Launch Successful

Launch date: May 23, 2014, 5:27 a.m. UTC

Rocket: Rokot/Briz-KM

Launch pad: 133/3 (133L)

Location: Plesetsk Cosmodrome, Russian Federation

...

Latest news about this satellite

There are no fresh news available about this satellite. Check back as we update our databases every day.


Newsletter sign-up

Weekly statistics, charts and insights to help you stay on top of the space industry.